Regional Weather Roundup
Issued by NWS Albany, NY

Home | Current Version | Previous Version | Text Only | Print | Product List | Glossary On
Versions: 1 2 3 4 5 6 7 8 9 10 11 12 13 14 15 16 17 18 19 20 21 22 23 24 25 26 27 28 29 30 31 32 33 34 35 36 37 38 39 40 41 42 43 44 45 46 47 48 49 50
941
ASUS41 KALY 262210
RWRALY

NEW YORK STATE HOURLY WEATHER ROUNDUP
NATIONAL WEATHER SERVICE ALBANY NY
600 PM EDT THU MAY 26 2016

NOTE: "FAIR" INDICATES FEW OR NO CLOUDS BELOW 12,000 FEET WITH NO
SIGNIFICANT WEATHER AND/OR NO OBSTRUCTIONS TO VISIBILITY.

NYZ032-033-038>043-046>054-057>066-NYZ062>081-082-084-262300-
EAST


CITY           SKY/WX    TMP DP  RH WIND       PRES   REMARKS
ALBANY         CLOUDY    85  53  33 S9        30.01F
GLENS FALLS    CLOUDY    85  58  39 SE10      30.00F
POUGHKEEPSIE   CLOUDY    88  56  33 SE3       30.00F
NEWBURGH       CLOUDY    84  57  39 CALM      30.03
MONTGOMERY     PTSUNNY   87  57  35 SW7       30.00F
WHITE PLAINS   MOSUNNY   81  51  35 S8        30.04S
ISLIP          PTSUNNY   78  52  40 SW13      30.05F
NEW YORK CITY  PTSUNNY   86  53  32 S17       30.02F
CENTRAL PARK   MOSUNNY   83  47  28 VRB3      30.06F
$$

NYZ005>009-017-018-044>046-055-056-262300-
CENTRAL


CITY           SKY/WX    TMP DP  RH WIND       PRES   REMARKS
FULTON         CLOUDY    84  58  40 S7        29.97F
SYRACUSE       CLOUDY    83  55  38 S13       29.97F
ROME           CLOUDY    83  53  35 S9        30.00F
ELMIRA         MOSUNNY   84  57  39 SW10      29.99F
BINGHAMTON     PTSUNNY   79  55  43 SE6       30.04F
MONTICELLO     CLOUDY    81  54  39 S5        30.08S
$$

NYZ026>034-041>043-087-262300-
NORTH


CITY           SKY/WX    TMP DP  RH WIND       PRES   REMARKS
WATERTOWN      CLOUDY    81  59  47 CALM      29.97S HAZE
FORT DRUM      NOT AVBL
MASSENA        CLOUDY    75  49  39 NE7       30.01F
SARANAC LAKE   CLOUDY    73  51  46 N8        30.06R
PLATTSBURGH    PTSUNNY   74  46  36 NE6       30.04S
$$

NYZ001>004-010>016-019>021-085-262300-
WEST


CITY           SKY/WX    TMP DP  RH WIND       PRES   REMARKS
NIAGARA FALLS  PTSUNNY   84  62  47 SW12      29.93F
BUFFALO        MOSUNNY   81  62  52 SW10      29.96F
DUNKIRK        CLOUDY    76  63  64 W6        29.97F
JAMESTOWN      MOSUNNY   77  59  53 SW9       30.01S
WELLSVILLE     MOSUNNY   78  58  49 SW9       30.05F
ROCHESTER      LGT RAIN  70  65  84 SE3       30.00S
PENN YAN       PTSUNNY   84  55  36 S9        29.99F
$$

             KEY
       WCI = WIND CHILL INDEX
       VSB = VISIBILITY
       HX  = HEAT INDEX
$$




USA.gov is the U.S. government's official web portal to all federal, state and local government web resources and services.